Tracking 19817 objects as of 19-Aug-2019
HD Live streaming from Space Station
objects crossing your sky now

COMPASS 2

Track COMPASS 2 now!
10-day predictions


NORAD ID: 42777
Int'l Code: 2017-036N
Perigee: 495.1 km
Apogee: 512.7 km
Inclination: 97.3 °
Period: 94.5 minutes
Semi major axis: 6874 km
RCS: Unknown
Launch date: June 23, 2017
Source: Germany (GER)
Launch site: SRIHARIKOTA (SRI)
aabbcc
Your satellite tracking list
Your tracking list is empty




NASA's NSSDC Master Catalog

Two Line Element Set (TLE):
1 42777U 17036N   19230.70512885 +.00000873 +00000-0 +40021-4 0  9994
2 42777 097.3497 287.5005 0012784 015.0749 345.0866 15.23009517119559
Source of the keplerian elements: AFSPC